Regional Weather Roundup
Issued by NWS

Home | Current Version | Previous Version | Text Only | Print | Product List | Glossary On
Versions: 1 2 3 4 5 6 7 8 9 10 11 12 13 14 15 16 17 18 19 20 21 22 23 24 25 26 27 28
000
ASUS42 KKEY 240110
RWRKEY

FLORIDA REGIONAL WEATHER ROUNDUP FOR THE FLORIDA KEYS
NATIONAL WEATHER SERVICE KEY WEST FLORIDA
900 PM EDT WED APR 23 2014

...SOUTH FLORIDA AND THE KEYS...

CITY           SKY/WX    TMP DP  RH WIND       PRES   REMARKS
FORT MYERS     CLEAR     72  63  73 W7        29.95R
SW REGIONAL AP CLEAR     72  62  71 NW7       29.95R
NAPLES         CLEAR     72  66  81 W6        29.95R
MIAMI          PTCLDY    77  63  61 SW9       29.93R
WEST KENDALL   CLEAR     73  64  73 W6        29.93R
HOMESTEAD      CLEAR     73  64  73 W9        29.94R
MARATHON       CLEAR     74  64  71 NW7       29.94R
BOCA CHICA NAS CLEAR     73  64  73 N7        29.95R
KEY WEST INTL  CLEAR     75  65  70 N7        29.95R

...INTERNATIONAL WEATHER...

CITY           SKY/WX    TMP DP  RH WIND       PRES   REMARKS
NASSAU BAHAMAS NOT AVBL
CANCUN MEXICO  MOCLDY    77  66  69 E3        29.92R
COZUMEL MEXICO MOCLDY    72  66  83 E3        29.93R

ADJACENT COASTAL WATERS...

STATION/POSITION TIME  SKY/WX   TEMP    WIND        PRES    WAVE
                                AIR SEA DIR/SP/G            HT/PER
                 (UTC)          (F)     (DEG/KT/KT) (MB)    (FT/S)
PULASKI SHOAL LI NOT AVBL
SAND KEY         NOT AVBL
SOMBRERO KEY     0100            74     320/  9/ 11 1014.7R
LONG KEY         0100            75 80  310/  9/ 10 1014.8R
MOLASSES REEF    0100            75 80  290/ 12/ 14 1013.8R
FOWEY ROCKS      0100            77 78  250/ 17/ 18 1013.5R
Buoy 42080       NOT AVBL

$$



USA.gov is the U.S. government's official web portal to all federal, state and local government web resources and services.